GW5791 Weather Reports


Display with metric or nautical units.
time (UTC)temp
F
wind
direction
speed
MPH
gust
MPH
rain 1hr
in
rain 24hr
in
rain mn
in
humidity
%
barometer
mb
20260505212105 60 9 5.0 9.0 0.00 0.00 0.00 50 827.5
20260505211105 60 202 5.0 10.0 0.00 0.00 0.00 51 827.6
20260505210605 60 323 3.0 7.0 0.00 0.00 0.00 51 827.6
20260505210105 61 356 2.0 7.0 0.00 0.00 0.00 51 827.6
20260505205605 61 309 3.0 9.0 0.00 0.00 0.00 51 827.6
20260505205105 61 297 3.0 7.0 0.00 0.00 0.00 51 827.6
20260505204106 61 26 2.0 5.0 0.00 0.00 0.00 52 827.7
20260505203605 61 268 5.0 9.0 0.00 0.00 0.00 52 827.8
20260505203105 60 266 3.0 9.0 0.00 0.00 0.00 53 827.9
20260505202605 60 118 3.0 7.0 0.00 0.00 0.00 52 827.9
20260505202105 60 185 1.0 9.0 0.00 0.00 0.00 54 827.8
20260505201605 60 333 5.0 9.0 0.00 0.00 0.00 53 827.8
20260505201105 60 295 3.0 9.0 0.00 0.00 0.00 53 827.8
20260505200604 59 19 4.0 8.0 0.00 0.00 0.00 55 827.9
20260505200105 58 315 3.0 8.0 0.00 0.00 0.00 56 828.0
20260505195605 57 301 4.0 7.0 0.00 0.00 0.00 61 828.0
20260505195105 57 316 4.0 8.0 0.00 0.00 0.00 59 828.2
20260505194605 57 344 3.0 10.0 0.00 0.00 0.00 59 828.3
20260505194105 57 264 4.0 10.0 0.00 0.00 0.00 63 828.3
20260505193605 57 276 6.0 13.0 0.00 0.00 0.00 63 828.3
20260505193105 57 244 4.0 9.0 0.00 0.00 0.00 60 828.3
20260505192605 57 323 2.0 10.0 0.00 0.00 0.00 64 828.4
20260505192105 57 260 5.0 13.0 0.00 0.00 0.00 66 828.4
20260505191605 57 299 5.0 9.0 0.00 0.00 0.00 67 828.5
20260505191105 56 294 5.0 10.0 0.00 0.00 0.00 70 828.5
20260505190605 55 298 5.0 12.0 0.00 0.00 0.00 71 828.5
20260505185104 54 296 5.0 9.0 0.00 0.00 0.00 73 828.6
20260505184605 55 295 3.0 9.0 0.00 0.00 0.00 71 828.7
20260505183606 56 276 5.0 13.0 0.00 0.00 0.00 61 828.5
20260505182105 58 246 5.0 8.0 0.00 0.00 0.00 53 828.4
20260505181605 59 277 6.0 10.0 0.00 0.00 0.00 52 828.4
20260505181104 59 272 6.0 12.0 0.00 0.00 0.00 48 828.3
20260505175605 60 189 3.0 7.0 0.00 0.00 0.00 46 828.2
20260505175104 60 218 3.0 12.0 0.00 0.00 0.00 47 828.2
20260505174104 59 132 3.0 6.0 0.00 0.00 0.00 47 828.2
20260505173605 58 171 3.0 7.0 0.00 0.00 0.00 47 828.2
20260505172605 58 48 3.0 7.0 0.00 0.00 0.00 47 828.2
20260505171605 58 239 3.0 8.0 0.00 0.00 0.00 49 828.3
20260505171104 58 324 1.0 6.0 0.00 0.00 0.00 49 828.3
20260505170604 57 38 2.0 7.0 0.00 0.00 0.00 50 828.4
20260505165605 56 283 2.0 9.0 0.00 0.00 0.00 51 828.6
20260505165105 56 333 6.0 10.0 0.00 0.00 0.00 52 828.6
20260505164605 56 6 5.0 10.0 0.00 0.00 0.00 52 828.4
20260505164105 55 9 3.0 9.0 0.00 0.00 0.00 54 828.4
20260505163605 55 6 5.0 9.0 0.00 0.00 0.00 54 828.6
20260505162605 55 10 5.0 9.0 0.00 0.00 0.00 56 828.5
20260505162105 54 9 3.0 7.0 0.00 0.00 0.00 57 828.6
20260505161605 54 345 5.0 9.0 0.00 0.00 0.00 59 828.8
20260505160604 54 12 5.0 9.0 0.00 0.00 0.00 60 828.9
20260505153105 54 330 6.0 10.0 0.00 0.00 0.00 61 829.0
20260505152604 54 336 6.0 10.0 0.00 0.00 0.00 61 829.1
20260505152104 54 346 6.0 8.0 0.00 0.00 0.00 62 829.1
20260505150605 54 18 3.0 7.0 0.00 0.00 0.00 64 829.1
20260505150104 53 4 5.0 8.0 0.00 0.00 0.00 63 829.2
20260505140105 57 8 8.0 14.0 0.00 0.00 0.00 51 829.3
20260505130104 58 320 2.0 3.0 0.00 0.00 0.00 45 828.5
20260505124605 58 300 2.0 3.0 0.00 0.00 0.00 44 828.2
20260505124104 58 299 2.0 5.0 0.00 0.00 0.00 43 828.4
20260505123105 58 317 2.0 3.0 0.00 0.00 0.00 43 828.4
20260505122605 58 310 1.0 3.0 0.00 0.00 0.00 43 828.4
20260505121605 58 293 1.0 8.0 0.00 0.00 0.00 42 828.5
20260505121104 58 279 4.0 8.0 0.00 0.00 0.00 42 828.5
20260505115605 58 22 2.0 2.0 0.00 0.00 0.00 40 828.3
20260505115105 58 44 1.0 2.0 0.00 0.00 0.00 39 828.3
20260505114605 58 64 1.0 1.0 0.00 0.00 0.00 40 828.3
20260505114104 58 121 0.0 2.0 0.00 0.00 0.00 40 828.1
20260505113605 58 74 2.0 2.0 0.00 0.00 0.00 39 828.1
20260505113105 58 86 0.0 2.0 0.00 0.00 0.00 38 828.2
20260505112104 58 45 1.0 2.0 0.00 0.00 0.00 37 828.1
20260505111604 59 31 1.0 2.0 0.00 0.00 0.00 37 828.1
20260505111105 59 6 1.0 3.0 0.00 0.00 0.00 37 828.2
20260505110604 59 289 1.0 3.0 0.00 0.00 0.00 36 828.3
20260505102104 59 265 4.0 8.0 0.00 0.00 0.00 34 828.4
20260505101604 59 263 5.0 8.0 0.00 0.00 0.00 34 828.3
20260505101104 59 265 3.0 3.0 0.00 0.00 0.00 35 828.1
20260505100604 59 254 2.0 3.0 0.00 0.00 0.00 34 828.1
20260505100104 59 263 2.0 3.0 0.00 0.00 0.00 35 828.1
20260505095604 59 257 0.0 1.0 0.00 0.00 0.00 35 828.1
20260505095105 60 350 1.0 2.0 0.00 0.00 0.00 34 828.2
20260505094605 60 356 1.0 3.0 0.00 0.00 0.00 34 828.2
20260505094104 60 5 2.0 3.0 0.00 0.00 0.00 34 828.1
20260505093604 60 23 2.0 3.0 0.00 0.00 0.00 34 828.1
20260505093104 60 28 2.0 3.0 0.00 0.00 0.00 33 828.0
20260505092605 60 354 1.0 3.0 0.00 0.00 0.00 33 828.0
20260505092105 60 296 2.0 5.0 0.00 0.00 0.00 33 828.2
20260505091604 60 268 3.0 6.0 0.00 0.00 0.00 33 828.1
20260505091104 60 243 3.0 6.0 0.00 0.00 0.00 33 828.2
20260505090604 60 259 3.0 5.0 0.00 0.00 0.00 33 828.4
20260505090104 61 272 2.0 3.0 0.00 0.00 0.00 33 828.5
20260505085604 61 274 2.0 3.0 0.00 0.00 0.00 32 828.5
20260505085104 61 268 1.0 2.0 0.00 0.00 0.00 33 828.5
20260505084604 61 294 1.0 3.0 0.00 0.00 0.00 32 828.5
20260505084104 61 284 2.0 3.0 0.00 0.00 0.00 32 828.6
20260505083104 61 299 4.0 7.0 0.00 0.00 0.00 32 828.8
20260505082604 62 313 2.0 5.0 0.00 0.00 0.00 32 828.8
20260505082104 62 277 3.0 7.0 0.00 0.00 0.00 31 828.7
20260505081604 62 298 3.0 6.0 0.00 0.00 0.00 31 828.7
20260505081104 62 283 4.0 8.0 0.00 0.00 0.00 31 828.6
20260505080604 62 270 5.0 10.0 0.00 0.00 0.00 31 828.6
20260505080104 62 271 3.0 7.0 0.00 0.00 0.00 31 828.6
20260505075604 62 272 5.0 9.0 0.00 0.00 0.00 31 828.8
20260505075104 63 317 6.0 12.0 0.00 0.00 0.00 31 828.8
20260505074605 63 268 7.0 17.0 0.00 0.00 0.00 31 828.6
20260505074104 63 255 9.0 18.0 0.00 0.00 0.00 30 828.6
20260505073604 63 243 11.0 20.0 0.00 0.00 0.00 30 828.5
20260505073104 63 249 9.0 21.0 0.00 0.00 0.00 30 828.6
20260505072604 63 245 10.0 20.0 0.00 0.00 0.00 30 828.6
20260505072104 63 258 9.0 20.0 0.00 0.00 0.00 30 828.5
20260505071604 64 266 9.0 20.0 0.00 0.00 0.00 30 828.5
20260505071105 64 256 9.0 22.0 0.00 0.00 0.00 29 828.5
20260505065604 64 255 6.0 21.0 0.00 0.00 0.00 28 828.2
20260505065104 64 254 9.0 17.0 0.00 0.00 0.00 28 828.2
20260505064604 64 271 6.0 14.0 0.00 0.00 0.00 28 828.2
20260505064104 65 274 5.0 13.0 0.00 0.00 0.00 27 828.2
20260505063604 65 252 5.0 12.0 0.00 0.00 0.00 27 828.2
20260505063104 65 249 6.0 12.0 0.00 0.00 0.00 27 828.0
20260505062604 65 250 7.0 13.0 0.00 0.00 0.00 27 828.1
20260505062104 65 262 5.0 12.0 0.00 0.00 0.00 26 828.2
20260505061105 65 247 6.0 10.0 0.00 0.00 0.00 26 828.3
20260505060104 66 244 6.0 12.0 0.00 0.00 0.00 25 828.3
20260505055104 66 260 7.0 9.0 0.00 0.00 0.00 25 828.3
20260505054104 66 263 5.0 10.0 0.00 0.00 0.00 24 828.2
20260505053604 66 262 6.0 9.0 0.00 0.00 0.00 24 828.1
20260505053104 67 270 5.0 8.0 0.00 0.00 0.00 24 828.0
20260505052603 67 271 5.0 9.0 0.00 0.00 0.00 24 828.0
20260505052104 67 275 5.0 13.0 0.00 0.00 0.00 24 828.0
20260505051604 67 279 5.0 9.0 0.00 0.00 0.00 24 828.0
20260505051104 67 269 2.0 8.0 0.00 0.00 0.00 24 828.0
20260505050604 67 271 3.0 8.0 0.00 0.00 0.00 24 828.0
20260505050104 67 295 2.0 8.0 0.00 0.00 0.00 23 828.0
20260505041104 68 288 1.0 5.0 0.00 0.00 0.00 24 828.0
20260505040604 68 290 1.0 5.0 0.00 0.00 0.00 23 827.9
20260505040104 68 302 2.0 9.0 0.00 0.00 0.00 23 827.9
20260505035104 69 5 1.0 3.0 0.00 0.00 0.00 23 827.9
20260505034604 69 312 3.0 7.0 0.00 0.00 0.00 23 828.0
20260505034104 69 316 2.0 12.0 0.00 0.00 0.00 23 827.8
20260505033104 69 299 3.0 12.0 0.00 0.00 0.00 22 827.6
20260505032604 69 288 4.0 13.0 0.00 0.00 0.00 22 827.6
20260505032104 69 268 5.0 13.0 0.00 0.00 0.00 22 827.5
20260505031604 69 273 5.0 14.0 0.00 0.00 0.00 22 827.5
20260505031104 69 264 5.0 13.0 0.00 0.00 0.00 22 827.5
20260505030604 70 275 5.0 14.0 0.00 0.00 0.00 22 827.4
20260505025603 70 264 5.0 15.0 0.00 0.00 0.00 22 827.3
20260505025104 70 266 6.0 13.0 0.00 0.00 0.00 21 827.2
20260505024604 70 268 7.0 13.0 0.00 0.00 0.00 21 827.2
20260505023604 71 277 6.0 13.0 0.00 0.00 0.00 21 827.1
20260505023104 71 273 5.0 12.0 0.00 0.00 0.00 20 827.0
20260505022604 71 267 5.0 10.0 0.00 0.00 0.00 20 827.0
20260505022104 71 273 5.0 10.0 0.00 0.00 0.00 20 827.0
20260505021604 71 274 3.0 10.0 0.00 0.00 0.00 20 827.0
20260505020604 71 271 3.0 7.0 0.00 0.00 0.00 20 826.9
20260505020104 71 268 3.0 7.0 0.00 0.00 0.00 20 826.8
20260505015603 71 283 4.0 9.0 0.00 0.00 0.00 20 826.8
20260505014604 72 270 3.0 8.0 0.00 0.00 0.00 20 826.7
20260505014104 72 286 3.0 8.0 0.00 0.00 0.00 21 826.6
20260505013604 72 271 2.0 6.0 0.00 0.00 0.00 20 826.5
20260505013104 72 269 2.0 3.0 0.00 0.00 0.00 20 826.5
20260505012604 72 274 2.0 6.0 0.00 0.00 0.00 20 826.4
20260505012104 72 292 2.0 5.0 0.00 0.00 0.00 20 826.4
20260505011104 72 282 3.0 7.0 0.00 0.00 0.00 19 826.4
20260505005603 73 295 2.0 6.0 0.00 0.00 0.00 19 826.3
20260505005104 73 283 1.0 7.0 0.00 0.00 0.00 18 826.3
20260505004603 73 307 3.0 6.0 0.00 0.00 0.00 18 826.3
20260505004104 73 281 3.0 7.0 0.00 0.00 0.00 18 826.4
20260505003603 73 291 2.0 8.0 0.00 0.00 0.00 18 826.4
20260505003104 73 268 3.0 8.0 0.00 0.00 0.00 18 826.4
20260505002604 73 302 3.0 7.0 0.00 0.00 0.00 17 826.5
20260505002103 73 279 4.0 10.0 0.00 0.00 0.00 17 826.5
20260505001604 73 263 3.0 8.0 0.00 0.00 0.00 17 826.6
20260504235606 73 284 5.0 9.0 0.00 0.00 0.00 16 826.6
20260504235105 73 279 4.0 9.0 0.00 0.00 0.00 16 826.5
20260504234605 73 283 5.0 8.0 0.00 0.00 0.00 16 826.5
20260504234105 73 288 5.0 12.0 0.00 0.00 0.00 15 826.5
20260504233606 73 286 4.0 9.0 0.00 0.00 0.00 15 826.6
20260504233105 74 285 3.0 9.0 0.00 0.00 0.00 15 826.6
20260504232605 74 287 5.0 10.0 0.00 0.00 0.00 15 826.6
20260504232105 74 284 3.0 7.0 0.00 0.00 0.00 15 826.6
20260504231605 74 296 5.0 10.0 0.00 0.00 0.00 15 826.5
20260504230606 74 272 6.0 12.0 0.00 0.00 0.00 15 826.5
20260504230105 74 275 6.0 13.0 0.00 0.00 0.00 15 826.5
20260504225605 75 266 7.0 14.0 0.00 0.00 0.00 14 826.5
20260504225105 75 272 6.0 15.0 0.00 0.00 0.00 14 826.5
20260504224605 75 281 6.0 15.0 0.00 0.00 0.00 14 826.6
20260504224105 75 247 5.0 14.0 0.00 0.00 0.00 14 826.6
20260504223105 75 256 9.0 14.0 0.00 0.00 0.00 13 826.9
20260504222105 75 267 8.0 14.0 0.00 0.00 0.00 13 826.8
20260504221605 75 270 9.0 15.0 0.00 0.00 0.00 13 827.0
20260504221106 75 239 7.0 15.0 0.00 0.00 0.00 14 826.9
20260504220105 75 237 7.0 13.0 0.00 0.00 0.00 17 827.2
20260504215605 75 258 4.0 8.0 0.00 0.00 0.00 18 827.2
20260504214606 74 234 5.0 9.0 0.00 0.00 0.00 19 827.3
20260504214105 75 200 5.0 12.0 0.00 0.00 0.00 19 827.3
20260504212605 74 205 6.0 12.0 0.00 0.00 0.00 20 827.5